TimeMST,TemperatureF,Dew PointF,Humidity,Sea Level PressureIn,VisibilityMPH,Wind Direction,Wind SpeedMPH,Gust SpeedMPH,PrecipitationIn,Events,Conditions,WindDirDegrees,DateUTC
1:53 AM,33.1,18.0,54,29.94,10.0,SW,12.7,-,N/A,,Clear,230,2011-12-28 08:53:00
2:53 AM,32.0,18.0,56,29.92,10.0,SW,13.8,-,N/A,,Clear,220,2011-12-28 09:53:00
3:53 AM,34.0,18.0,52,29.91,10.0,SW,18.4,23.0,N/A,,Clear,230,2011-12-28 10:53:00
4:53 AM,34.0,19.0,54,29.91,10.0,SW,15.0,-,N/A,,Partly Cloudy,220,2011-12-28 11:53:00
5:53 AM,36.0,19.0,50,29.88,10.0,SW,18.4,27.6,N/A,,Clear,220,2011-12-28 12:53:00
6:53 AM,37.0,19.0,48,29.86,10.0,SW,20.7,27.6,N/A,,Mostly Cloudy,220,2011-12-28 13:53:00
7:53 AM,37.0,21.0,52,29.87,10.0,SW,21.9,26.5,N/A,,Mostly Cloudy,230,2011-12-28 14:53:00
8:53 AM,39.9,21.9,49,29.83,10.0,SW,19.6,28.8,N/A,,Scattered Clouds,230,2011-12-28 15:53:00
9:53 AM,39.0,23.0,53,29.85,10.0,SW,23.0,29.9,N/A,,Scattered Clouds,230,2011-12-28 16:53:00
10:53 AM,42.1,23.0,47,29.81,10.0,SW,23.0,28.8,N/A,,Clear,230,2011-12-28 17:53:00
11:53 AM,45.0,26.1,48,29.79,10.0,SW,21.9,29.9,N/A,,Clear,220,2011-12-28 18:53:00
12:53 PM,46.9,27.0,46,29.79,10.0,SW,15.0,-,N/A,,Clear,230,2011-12-28 19:53:00
1:53 PM,46.0,27.0,47,29.80,10.0,SW,16.1,-,N/A,,Clear,220,2011-12-28 20:53:00
2:53 PM,45.0,28.0,52,29.82,10.0,SW,17.3,25.3,N/A,,Clear,230,2011-12-28 21:53:00
3:53 PM,43.0,28.0,56,29.83,10.0,SW,17.3,26.5,N/A,,Clear,230,2011-12-28 22:53:00
4:53 PM,43.0,28.0,56,29.83,10.0,SW,17.3,-,N/A,,Clear,220,2011-12-28 23:53:00
5:53 PM,41.0,27.0,57,29.86,10.0,SW,13.8,-,N/A,,Clear,230,2011-12-29 00:53:00
6:53 PM,39.9,28.0,63,29.87,10.0,SW,16.1,-,N/A,,Clear,230,2011-12-29 01:53:00
7:53 PM,39.9,27.0,60,29.86,10.0,SW,15.0,-,N/A,,Clear,230,2011-12-29 02:53:00
8:53 PM,39.0,27.0,62,29.83,10.0,SW,10.4,-,N/A,,Clear,220,2011-12-29 03:53:00
9:53 PM,39.9,26.1,58,29.82,10.0,SW,15.0,-,N/A,,Clear,230,2011-12-29 04:53:00
10:53 PM,41.0,27.0,57,29.80,10.0,SW,12.7,-,N/A,,Partly Cloudy,230,2011-12-29 05:53:00
11:53 PM,41.0,28.0,60,29.76,10.0,SSW,17.3,-,N/A,,Clear,210,2011-12-29 06:53:00